timestamp,wind_dir_avg,wind_spd_avg,wind_spd_max_dir,wind_spd_gust,battery_voltage,lat,long
2023-04-26 00:04:00+00:00,24.0,8.61,27.0,9.56,12.57,47.59359,-54.27349
2023-04-26 00:14:00+00:00,26.0,7.93,26.0,9.24,12.33,47.59359,-54.27349
2023-04-26 00:24:00+00:00,26.0,8.51,29.0,9.33,12.33,47.59359,-54.27349
2023-04-26 00:34:00+00:00,21.0,7.72,27.0,8.86,12.33,47.59359,-54.27349
2023-04-26 00:44:00+00:00,22.0,7.97,26.0,8.7,12.33,47.59359,-54.27349
2023-04-26 00:54:00+00:00,19.0,7.59,20.0,8.48,12.33,47.59359,-54.27349
2023-04-26 01:04:00+00:00,23.0,7.84,25.0,8.45,12.33,47.59359,-54.27349
2023-04-26 01:14:00+00:00,22.0,8.56,22.0,9.84,12.33,47.59359,-54.27349
2023-04-26 01:24:00+00:00,25.0,8.33,26.0,9.05,12.33,47.59359,-54.27349
2023-04-26 01:34:00+00:00,27.0,8.69,28.0,9.63,12.33,47.59359,-54.27349
2023-04-26 01:44:00+00:00,27.0,8.57,26.0,9.35,12.33,47.59359,-54.27349
2023-04-26 01:54:00+00:00,30.0,8.97,28.0,9.79,12.33,47.59359,-54.27349
2023-04-26 02:04:00+00:00,30.0,8.53,29.0,9.95,12.33,47.59359,-54.27349
2023-04-26 02:14:00+00:00,28.0,8.04,31.0,8.75,12.25,47.59359,-54.27349
2023-04-26 02:24:00+00:00,27.0,8.33,20.0,9.12,12.25,47.59359,-54.27349
2023-04-26 02:34:00+00:00,27.0,7.94,28.0,8.86,12.25,47.59359,-54.27349
2023-04-26 02:44:00+00:00,26.0,7.87,30.0,8.65,12.25,47.59359,-54.27349
2023-04-26 02:54:00+00:00,24.0,7.68,27.0,8.32,12.25,47.59359,-54.27349
2023-04-26 03:04:00+00:00,23.0,7.82,24.0,8.77,12.25,47.59359,-54.27349
2023-04-26 03:14:00+00:00,19.0,7.68,23.0,8.59,12.25,47.59359,-54.27349
2023-04-26 03:24:00+00:00,25.0,8.6,26.0,9.55,12.25,47.59359,-54.27349
2023-04-26 03:34:00+00:00,25.0,8.67,25.0,10.18,12.25,47.59359,-54.27349
2023-04-26 03:44:00+00:00,26.0,8.19,26.0,8.74,12.25,47.59359,-54.27349
2023-04-26 03:54:00+00:00,23.0,8.99,19.0,10.36,12.25,47.59359,-54.27349
2023-04-26 04:04:00+00:00,21.0,6.81,22.0,8.26,12.25,47.59359,-54.27349
2023-04-26 04:14:00+00:00,33.0,8.73,44.0,11.38,12.25,47.59359,-54.27349
2023-04-26 04:24:00+00:00,30.0,8.36,30.0,9.33,12.25,47.59359,-54.27349
2023-04-26 04:34:00+00:00,29.0,8.11,36.0,8.91,12.25,47.59359,-54.27349
2023-04-26 04:44:00+00:00,24.0,6.82,26.0,7.54,12.25,47.59359,-54.27349
2023-04-26 04:54:00+00:00,30.0,8.67,31.0,9.49,12.25,47.59359,-54.27349
2023-04-26 05:04:00+00:00,28.0,6.61,25.0,7.63,12.25,47.59359,-54.27349
2023-04-26 05:14:00+00:00,28.0,7.99,33.0,8.93,12.17,47.59359,-54.27349
2023-04-26 05:24:00+00:00,30.0,7.91,36.0,9.02,12.17,47.59359,-54.27349
2023-04-26 05:34:00+00:00,24.0,7.76,30.0,8.58,12.17,47.59359,-54.27349
2023-04-26 05:44:00+00:00,27.0,6.81,24.0,7.76,12.17,47.59359,-54.27349
2023-04-26 05:54:00+00:00,27.0,7.08,29.0,8.31,12.17,47.59359,-54.27349
2023-04-26 06:04:00+00:00,28.0,8.4,28.0,9.4,12.17,47.59359,-54.27349
2023-04-26 06:14:01+00:00,28.0,7.72,32.0,8.53,12.17,47.59359,-54.27349
2023-04-26 06:24:01+00:00,28.0,7.57,32.0,8.52,12.17,47.59359,-54.27349
2023-04-26 06:34:01+00:00,29.0,7.73,33.0,8.45,12.17,47.59359,-54.27349
2023-04-26 06:44:01+00:00,26.0,8.49,26.0,9.52,12.17,47.59359,-54.27349
2023-04-26 06:54:01+00:00,26.0,8.3,25.0,9.46,12.17,47.59359,-54.27349
2023-04-26 07:04:01+00:00,26.0,8.04,31.0,9.44,12.17,47.59359,-54.27349
2023-04-26 07:14:01+00:00,27.0,8.72,30.0,10.1,12.17,47.59359,-54.27349
2023-04-26 07:24:01+00:00,26.0,8.11,30.0,8.96,12.17,47.59359,-54.27349
2023-04-26 07:34:01+00:00,28.0,8.75,29.0,9.55,12.17,47.59359,-54.27349
2023-04-26 07:44:01+00:00,27.0,8.6,26.0,9.92,12.17,47.59359,-54.27349
2023-04-26 07:54:01+00:00,30.0,8.64,30.0,9.52,12.17,47.59359,-54.27349
2023-04-26 08:04:01+00:00,27.0,8.47,31.0,9.05,12.17,47.59359,-54.27349
2023-04-26 08:14:00+00:00,24.0,8.43,27.0,10.21,12.09,47.59359,-54.27349
2023-04-26 08:24:00+00:00,14.0,8.4,19.0,9.73,12.09,47.59359,-54.27349
2023-04-26 08:34:00+00:00,15.0,7.65,17.0,8.31,12.09,47.59359,-54.27349
2023-04-26 08:44:00+00:00,22.0,8.08,17.0,8.95,12.09,47.59359,-54.27349
2023-04-26 08:54:00+00:00,20.0,8.44,25.0,9.68,12.09,47.59359,-54.27349
2023-04-26 09:04:00+00:00,21.0,7.89,19.0,8.56,12.09,47.59359,-54.27349
2023-04-26 09:14:01+00:00,21.0,7.73,21.0,8.86,12.09,47.59359,-54.27349
2023-04-26 09:24:01+00:00,22.0,8.39,20.0,9.78,12.09,47.59359,-54.27349
2023-04-26 09:34:01+00:00,24.0,6.55,27.0,7.13,12.09,47.59359,-54.27349
2023-04-26 09:44:01+00:00,30.0,7.89,29.0,8.84,12.09,47.59359,-54.27349
2023-04-26 09:54:01+00:00,30.0,8.25,37.0,9.07,12.09,47.59359,-54.27349
2023-04-26 10:04:01+00:00,27.0,9.11,30.0,10.36,12.09,47.59359,-54.27349
2023-04-26 10:14:01+00:00,31.0,9.72,31.0,11.36,13.05,47.59359,-54.27349
2023-04-26 10:24:01+00:00,31.0,9.1,42.0,11.96,13.05,47.59359,-54.27349
2023-04-26 10:34:01+00:00,37.0,10.62,41.0,12.42,13.05,47.59359,-54.27349
2023-04-26 10:44:01+00:00,42.0,10.74,43.0,12.07,13.05,47.59359,-54.27349
2023-04-26 10:54:01+00:00,45.0,11.11,49.0,12.37,13.05,47.59359,-54.27349
2023-04-26 11:04:01+00:00,41.0,11.28,46.0,12.31,13.05,47.59359,-54.27349
2023-04-26 11:14:00+00:00,42.0,10.72,49.0,12.25,13.53,47.59359,-54.27349
2023-04-26 11:24:00+00:00,38.0,9.61,44.0,12.34,13.53,47.59359,-54.27349
2023-04-26 11:34:00+00:00,34.0,9.29,45.0,11.62,13.53,47.59359,-54.27349
2023-04-26 11:44:00+00:00,44.0,10.63,46.0,12.06,13.53,47.59359,-54.27349
2023-04-26 11:54:00+00:00,50.0,10.09,55.0,11.86,13.53,47.59359,-54.27349
2023-04-26 12:04:00+00:00,47.0,9.29,51.0,11.14,13.53,47.59359,-54.27349
2023-04-26 12:14:00+00:00,35.0,7.39,38.0,8.66,13.53,47.59359,-54.27349
2023-04-26 12:24:00+00:00,39.0,8.06,51.0,10.55,13.53,47.59359,-54.27349
2023-04-26 12:34:00+00:00,34.0,7.86,33.0,8.73,13.53,47.59359,-54.27349
2023-04-26 12:44:00+00:00,52.0,9.81,60.0,11.3,13.53,47.59359,-54.27349
2023-04-26 12:54:00+00:00,55.0,10.26,59.0,11.67,13.53,47.59359,-54.27349
2023-04-26 13:04:00+00:00,53.0,10.21,58.0,11.47,13.53,47.59359,-54.27349
2023-04-26 13:14:00+00:00,33.0,7.38,25.0,8.38,14.48,47.59359,-54.27349
2023-04-26 13:24:00+00:00,39.0,7.02,50.0,7.73,14.48,47.59359,-54.27349
2023-04-26 13:34:00+00:00,39.0,6.72,53.0,9.09,14.48,47.59359,-54.27349
2023-04-26 13:44:00+00:00,57.0,8.55,62.0,10.8,14.48,47.59359,-54.27349
2023-04-26 13:54:00+00:00,39.0,5.69,37.0,6.33,14.48,47.59359,-54.27349
2023-04-26 14:04:00+00:00,48.0,6.42,60.0,9.17,14.48,47.59359,-54.27349
2023-04-26 14:14:00+00:00,61.0,9.9,64.0,11.31,13.84,47.59359,-54.27349
2023-04-26 14:24:00+00:00,55.0,6.4,69.0,9.57,13.84,47.59359,-54.27349
2023-04-26 14:34:00+00:00,53.0,7.52,58.0,10.2,13.84,47.59359,-54.27349
2023-04-26 14:44:00+00:00,61.0,9.79,61.0,11.06,13.84,47.59359,-54.27349
2023-04-26 14:54:00+00:00,67.0,9.98,62.0,11.5,13.84,47.59359,-54.27349
2023-04-26 15:04:00+00:00,58.0,9.24,67.0,12.01,13.84,47.59359,-54.27349
2023-04-26 15:14:01+00:00,49.0,7.52,60.0,10.34,13.68,47.59359,-54.27349
2023-04-26 15:24:01+00:00,55.0,6.49,67.0,10.06,13.68,47.59359,-54.27349
2023-04-26 15:34:01+00:00,44.0,7.33,58.0,10.13,13.68,47.59359,-54.27349
2023-04-26 15:44:01+00:00,47.0,6.57,59.0,9.34,13.68,47.59359,-54.27349
2023-04-26 15:54:01+00:00,56.0,7.33,64.0,10.8,13.68,47.59359,-54.27349
2023-04-26 16:04:01+00:00,50.0,6.68,64.0,10.4,13.68,47.59359,-54.27349
2023-04-26 16:14:00+00:00,53.0,8.77,65.0,10.47,13.76,47.59359,-54.27349
2023-04-26 16:24:00+00:00,59.0,9.75,63.0,10.99,13.76,47.59359,-54.27349
2023-04-26 16:34:00+00:00,55.0,8.07,63.0,10.32,13.76,47.59359,-54.27349
2023-04-26 16:44:00+00:00,54.0,8.42,64.0,10.62,13.76,47.59359,-54.27349
2023-04-26 16:54:00+00:00,62.0,9.76,63.0,10.93,13.76,47.59359,-54.27349
2023-04-26 17:04:00+00:00,61.0,7.74,67.0,10.11,13.76,47.59359,-54.27349
2023-04-26 17:14:01+00:00,64.0,10.83,65.0,11.43,13.68,47.59359,-54.27349
2023-04-26 17:24:01+00:00,66.0,10.52,67.0,11.08,13.68,47.59359,-54.27349
2023-04-26 17:34:01+00:00,63.0,10.72,63.0,11.51,13.68,47.59359,-54.27349
2023-04-26 17:44:01+00:00,57.0,9.32,66.0,11.11,13.68,47.59359,-54.27349
2023-04-26 17:54:01+00:00,69.0,10.32,71.0,11.15,13.68,47.59359,-54.27349
2023-04-26 18:04:01+00:00,66.0,8.79,71.0,10.9,13.68,47.59359,-54.27349
2023-04-26 18:14:00+00:00,66.0,10.29,69.0,11.18,14.32,47.59359,-54.27349
2023-04-26 18:24:00+00:00,68.0,9.71,65.0,10.88,14.32,47.59359,-54.27349
2023-04-26 18:34:00+00:00,62.0,8.47,70.0,10.7,14.32,47.59359,-54.27349
2023-04-26 18:44:00+00:00,62.0,9.93,66.0,10.88,14.32,47.59359,-54.27349
2023-04-26 18:54:00+00:00,50.0,7.24,58.0,8.42,14.32,47.59359,-54.27349
2023-04-26 19:04:00+00:00,61.0,6.0,55.0,7.1,14.32,47.59359,-54.27349
2023-04-26 19:14:00+00:00,61.0,5.69,57.0,6.57,13.68,47.59359,-54.27349
2023-04-26 19:24:00+00:00,58.0,5.62,53.0,6.41,13.68,47.59359,-54.27349
2023-04-26 19:34:00+00:00,66.0,5.59,68.0,6.07,13.68,47.59359,-54.27349
2023-04-26 19:44:00+00:00,63.0,5.29,64.0,5.93,13.68,47.59359,-54.27349
2023-04-26 19:54:00+00:00,53.0,8.18,53.0,9.55,13.68,47.59359,-54.27349
2023-04-26 20:04:00+00:00,53.0,6.96,54.0,7.69,13.68,47.59359,-54.27349
2023-04-26 20:14:00+00:00,56.0,6.64,63.0,8.85,13.68,47.59359,-54.27349
2023-04-26 20:24:00+00:00,56.0,6.92,52.0,8.04,13.68,47.59359,-54.27349
2023-04-26 20:34:00+00:00,60.0,5.54,53.0,6.62,13.68,47.59359,-54.27349
2023-04-26 20:44:00+00:00,51.0,6.47,54.0,6.95,13.68,47.59359,-54.27349
2023-04-26 20:54:00+00:00,49.0,7.49,50.0,8.69,13.68,47.59359,-54.27349
2023-04-26 21:04:00+00:00,48.0,6.91,49.0,7.54,13.68,47.59359,-54.27349
2023-04-26 21:14:00+00:00,47.0,8.06,42.0,8.97,13.53,47.59359,-54.27349
2023-04-26 21:24:00+00:00,46.0,8.21,46.0,8.84,13.53,47.59359,-54.27349
2023-04-26 21:34:00+00:00,46.0,8.84,48.0,9.5,13.53,47.59359,-54.27349
2023-04-26 21:44:00+00:00,38.0,8.69,37.0,9.64,13.53,47.59359,-54.27349
2023-04-26 21:54:00+00:00,45.0,7.94,42.0,8.8,13.53,47.59359,-54.27349
2023-04-26 22:04:00+00:00,34.0,8.28,34.0,9.27,13.53,47.59359,-54.27349
2023-04-26 22:14:00+00:00,27.0,7.43,33.0,8.49,13.13,47.59359,-54.27349
2023-04-26 22:24:00+00:00,31.0,7.5,31.0,8.1,13.13,47.59359,-54.27349
2023-04-26 22:34:00+00:00,46.0,6.51,49.0,7.22,13.13,47.59359,-54.27349
2023-04-26 22:44:00+00:00,43.0,7.17,44.0,7.91,13.13,47.59359,-54.27349
2023-04-26 22:54:00+00:00,37.0,6.17,36.0,7.32,13.13,47.59359,-54.27349
2023-04-26 23:04:00+00:00,34.0,5.76,32.0,6.33,13.13,47.59359,-54.27349
2023-04-26 23:14:00+00:00,42.0,6.5,41.0,7.57,12.57,47.59359,-54.27349
2023-04-26 23:24:00+00:00,40.0,6.4,39.0,7.21,12.57,47.59359,-54.27349
2023-04-26 23:34:00+00:00,31.0,6.82,36.0,8.35,12.57,47.59359,-54.27349
2023-04-26 23:44:00+00:00,22.0,6.97,23.0,7.64,12.57,47.59359,-54.27349
2023-04-26 23:54:00+00:00,19.0,6.59,15.0,7.43,12.57,47.59359,-54.27349
